Location: Rounton
(54.4000°N, 1.3500°W)
Time: 06:33:58
(UTC+00:00)

Explorer 7 - Pass Details

Date: 09 December 2021
Orbit: 483 x 674 km, 50.3° (Epoch: 16 January)

Event Time Altitude Azimuth Distance (km) Brightness Sun altitude
Rises 08:51:42 0° 276° (W) 2,736 9.9 3.1°
Reaches altitude 10° 08:54:17 10° 262° (W) 1,803 9.1 3.3°
Maximum altitude 08:57:37 24° 208° (SSW) 1,100 8.7 3.6°
Drops below altitude 10° 09:00:48 10° 153° (SSE) 1,718 11.4 3.9°
Sets 09:03:12 0° 139° (SE) 2,577 13.5 4.2°
